SCP
0 0 0 0 0 0 0 0 0 0 0 0 0 0 -0 0 0 0 0 0 0 -0 -0 -0 -0 -0 -0 -0 -0 -0 -0 0 -0 -0 -0 0 0 0 -0 -0 -0 -0 -0 -0 -0 -0 0 -0 -0 -0 -0 -0 -0 -0
0 0 0 0 0 0 0 0 0 0 0 0 0 0 0 -0 0 0 0 0 0 0 0 -0 -0 -0 -0 -0 -0 -0 0 0 0 0 0 0 -0 -0 0 0 -0 0 -0 -0 -0 0 -0 -0 -0 -0 -0 -0 -0 -0
0 0 0 0 0 0 0 0 0 0 0 0 0 0 0 0 0 0 0 0 0 0 0 -0 -0 -0 -0 -0 -0 -0 -0 0 0 -0 0 0 0 0 -0 -0 0 0 -0 -0 -0 -0 -0 -0 -0 -0 -0 -0 -0 -0
0 0 0 0 0 0 0 0 0 0 0 0 0 0 0 0 0 0 0 0 0 0 -0 -0 -0 -0 -0 -0 -0 -0 -0 -0 0 0 0 0 0 0 0 0 0 -0 0 0 0 -0 -0 -0 -0 -0 -0 -0 -0 -0
0 0 0 0 0 0 0 0 0 0 0 0 0 0 0 -0 0 0 0 0 0 0 -0 -0 0 -0 -0 -0 -0 -0 -0 -0 0 0 0 0 0 0 0 0 0 0 0 -0 0 0 0 -0 -0 -0 -0 -0 -0 -0
0 0 0 0 0 0 0 0 0 0 0 0 0 0 0 -0 0 0 0 0 0 0 0 -0 0 -0 -0 -0 -0 -0 -0 -0 -0 0 0 0 0 0 0 0 0 0 0 -0 -0 -0 0 0 -0 -0 -0 -0 -0 0
0 0 0 0 0 0 0 0 0 0 0 0 0 0 0 0 0 0 0 0 0 0 0 0 -0 0 0 -0 -0 -0 -0 -0 -0 -0 0 0 0 0 0 0 0 0 0 0 0 -0 -0 0 0 0 0 0 0 0
0 0 0 0 0 0 0 0 0 0 0 0 0 0 0 0 0 0 0 0 0 0 0 0 -0 -0 0 0 0 -0 -0 -0 -0 0 0 0 0 0 0 -0 0 0 0 0 0 -0 -0 -0 0 0 0 0 -0 0
0 0 0 0 0 0 0 0 0 0 0 0 0 0 0 0 0 0 0 0 0 0 0 0 -0 -0 0 0 0 0 -0 -0 -0 0 0 0 0 0 -0 0 0 -0 -0 -0 -0 0 0 -0 -0 0 0 0 0 0
0 0 0 0 0 0 0 0 0 0 0 0 0 0 0 0 0 0 0 0 0 0 0 0 0 -0 -0 0 0 0 0 0 0 -0 -0 0 0 -0 0 0 0 -0 0 -0 -0 0 0 0 -0 -0 0 0 0 0
0 0 0 0 0 0 0 0 0 0 0 0 0 0 0 0 0 0 0 0 0 0 0 0 0 -0 -0 -0 0 -0 -0 0 0 0 0 0 -0 0 0 0 0 0 -0 0 0 0 0 0 -0 -0 -0 -0 -0 0
0 0 0 0 0 0 0 0 0 0 0 0 0 0 0 0 0 0 0 0 0 0 0 0 0 0 0 0 -0 -0 -0 -0 -0 0 0 0 -0 0 -0 0 0 0 0 0 0 -0 0 0 0 -0 0 0 0 0
0 0 0 0 0 0 0 0 0 0 0 0 0 0 0 0 0 0 0 0 0 0 0 0 0 0 0 0 -0 -0 -0 -0 0 0 0 0 -0 -0 -0 -0 -0 0 0 0 0 0 0 0 0 0 -0 0 0 0
0 0 0 0 0 0 0 0 0 0 0 0 0 0 0 0 0 0 0 0 0 0 0 0 0 0 0 0 -0 -0 -0 -0 -0 0 0 -0 -0 0 -0 0 -0 -0 -0 -0 0 0 0 0 0 0 0 0 0 0
0 0 0 0 0 0 0 0 0 0 0 0 0 0 0 0 0 0 0 0 0 0 0 0 0 0 0 0 0 -0 -0 0 0 0 -0 -0 0 0 -0 0 -0 -0 0 0 0 0 0 0 0 0 0 0 0 0
0 0 0 0 0 0 0 0 0 0 0 0 0 0 0 0 0 0 0 0 0 0 0 0 0 0 0 0 0 0 0 0 0 0 -0 0 0 0 0 0 0 0 -0 -0 0 0 0 0 0 0 0 0 0 0
0 0 0 0 0 0 0 0 0 0 0 0 0 0 0 0 0 0 0 0 0 0 0 0 0 0 0 0 0 0 0 0 -0 -0 -0 -0 -0 -0 0 0 0 0 0 0 0 0 0 0 0 0 0 0 0 0
0 0 0 0 0 0 0 0 0 0 0 0 0 0 0 0 0 0 0 0 0 0 0 0 0 0 0 0 0 0 0 0 0 0 -0 0 0 0 0 -0 -0 -0 -0 0 0 0 0 0 0 0 0 0 0 0
0 0 0 0 0 0 0 0 0 0 0 0 0 0 0 0 0 0 0 0 0 0 0 0 0 0 0 0 0 0 0 0 0 0 0 0 0 -0 -0 0 -0 0 -0 -0 0 0 0 0 0 0 0 0 0 0
0 0 0 0 0 0 0 0 0 0 0 0 0 0 0 0 0 0 0 0 0 0 0 0 0 0 0 0 0 0 0 0 0 0 0 0 0 0 -0 -0 0 0 0 0 0 0 0 0 0 0 0 0 0 0
0 0 0 0 0 0 0 0 0 0 0 0 0 0 0 0 0 0 0 0 0 0 0 0 0 0 0 0 0 0 0 0 0 0 0 0 0 0 0 0 0 0 0 0 0 0 0 0 0 0 0 0 0 0
0 0 0 0 0 0 0 0 0 0 0 0 0 0 0 0 0 0 0 0 0 0 0 0 0 0 0 0 0 0 0 0 0 0 0 0 0 0 0 0 0 0 0 0 0 0 0 0 0 0 0 0 0 0
0 0 0 0 0 0 0 0 0 0 0 0 0 0 0 0 0 0 0 0 0 0 0 0 0 0 0 0 0 0 0 0 0 0 0 0 0 0 0 0 0 0 0 0 0 0 0 0 0 0 0 0 0 0
0 0 0 0 0 0 0 0 0 0 0 0 0 0 0 0 0 0 0 0 0 0 0 0 0 0 0 0 0 0 0 0 0 0 0 0 0 0 0 0 0 0 0 0 0 0 0 0 0 0 0 0 0 0
0 0 0 0 0 0 0 0 0 0 0 0 0 0 0 0 0 0 0 0 0 0 0 0 0 0 0 0 0 0 0 0 0 0 0 0 0 0 0 0 0 0 0 0 0 0 0 0 0 0 0 0 0 0
0 0 0 0 0 0 0 0 0 0 0 0 0 0 0 0 0 0 0 0 0 0 0 0 0 0 0 0 0 0 0 0 0 0 0 0 0 0 0 0 0 0 0 0 0 0 0 0 0 0 0 0 0 0
0 0 0 0 0 0 0 0 0 0 0 0 0 0 0 0 0 0 0 0 0 0 0 0 0 0 0 0 0 0 0 0 0 0 0 0 0 0 0 0 0 0 0 0 0 0 0 0 0 0 0 0 0 0
0 0 0 0 0 0 0 0 0 0 0 0 0 0 0 0 0 0 0 0 0 0 0 0 0 0 0 0 0 0 0 0 0 0 0 0 0 0 0 0 0 0 0 0 0 0 0 0 0 0 0 0 0 0
0 0 0 0 0 0 0 0 0 0 0 0 0 0 0 0 0 0 0 0 0 0 0 0 0 0 0 0 0 0 0 0 0 0 0 0 0 0 0 0 0 0 0 0 0 0 0 0 0 0 0 0 0 0
0 0 0 0 0 0 0 0 0 0 0 0 0 0 0 0 0 0 0 0 0 0 0 0 0 0 0 0 0 0 0 0 0 0 0 0 0 0 0 0 0 0 0 0 0 0 0 0 0 0 0 0 0 0
0 0 0 0 0 0 0 0 0 0 0 0 0 0 0 0 0 0 0 0 0 0 0 0 0 0 0 0 0 0 0 0 0 0 0 0 0 0 0 0 0 0 0 0 0 0 0 0 0 0 0 0 0 0
0 0 0 0 0 0 0 0 0 0 0 0 0 0 0 0 0 0 0 0 0 0 0 0 0 0 0 0 0 0 0 0 0 0 0 0 0 0 0 0 0 0 0 0 0 0 0 0 0 0 0 0 0 0
0 0 0 0 0 0 0 0 0 0 0 0 0 0 0 0 0 0 0 0 0 0 0 0 0 0 0 0 0 0 0 0 0 0 0 0 0 0 0 0 0 0 0 0 0 0 0 0 0 0 0 0 0 0
Wind_Speed_500mb
70 58 68 64 65 69 72 73 70 89 96 96 94 88 78 74 65 59 50 40 23 10 27 21 14 9 11 8 4 2 3 2 3 6 2 2 2 2 3 3 3 4 5 4 2 5 7 22 10 7 2 6 9 21
76 75 66 65 63 74 78 81 72 80 96 98 90 84 82 75 65 59 52 46 30 11 17 22 18 15 11 9 8 5 3 2 3 7 2 4 2 2 1 6 3 1 2 3 3 4 6 14 11 9 8 10 12 20
72 82 71 69 69 85 79 80 78 87 107 102 95 93 81 78 63 61 54 52 35 16 16 18 14 13 11 9 10 6 5 5 5 5 9 3 1 4 2 2 6 4 5 3 2 5 5 0 5 8 15 21 23 21
46 65 76 66 62 77 82 78 82 88 104 103 104 94 84 71 66 62 47 51 34 16 13 9 16 14 9 10 9 12 14 9 9 6 4 3 2 10 3 3 5 1 9 4 6 7 5 10 12 15 21 22 19 22
46 62 84 78 65 101 87 90 92 99 112 107 98 90 81 72 64 57 38 48 38 11 14 13 20 14 14 12 10 10 10 5 3 1 1 2 5 6 2 2 7 19 10 7 4 11 4 14 25 22 22 20 19 18
50 55 73 75 52 100 85 93 92 110 114 107 102 90 81 76 65 54 16 41 43 16 7 6 11 14 12 13 12 10 8 3 2 2 3 2 3 3 3 5 11 28 21 12 6 17 7 21 28 22 20 16 14 14
44 39 62 67 68 93 90 105 112 111 117 111 99 87 79 70 66 45 12 20 53 25 6 12 3 10 16 12 11 8 7 3 2 3 3 4 2 3 1 6 7 26 23 19 15 17 13 20 15 19 14 12 10 9
40 37 57 59 76 95 91 107 117 124 119 107 97 85 68 63 62 44 4 20 59 28 7 8 3 6 21 10 8 9 6 6 4 4 3 2 2 4 9 31 12 20 32 27 26 18 17 18 21 20 16 12 8 5
42 36 55 58 60 106 119 126 139 133 119 107 95 78 65 53 35 37 9 47 48 14 14 9 10 5 21 8 7 9 8 2 1 3 3 2 3 10 19 23 34 36 34 32 35 26 20 23 22 19 16 11 11 8
43 39 47 60 63 113 127 146 145 133 129 115 91 54 22 40 34 35 22 19 14 11 9 9 17 7 15 9 3 5 2 2 4 0 4 4 9 48 28 20 24 38 31 30 44 40 35 31 28 22 18 16 13 7
47 40 52 42 64 132 152 160 153 148 129 113 34 19 59 59 49 14 13 12 13 4 15 17 14 14 18 6 7 8 4 1 3 2 3 3 8 14 27 41 33 38 38 33 34 30 34 30 31 28 26 22 16 10
52 40 46 33 76 155 172 170 164 153 104 79 52 86 78 24 10 10 6 2 8 12 19 23 17 16 18 13 9 5 5 2 6 1 2 6 9 20 27 58 42 45 42 37 33 29 30 29 28 31 31 29 24 22
58 44 48 33 104 185 179 174 151 126 116 97 60 24 19 8 6 20 18 8 6 26 30 27 14 15 14 9 14 5 6 5 5 2 8 10 6 29 35 61 53 51 43 36 36 37 33 28 25 27 34 34 29 25
55 47 50 16 176 191 188 164 147 141 127 24 18 15 17 13 13 9 11 12 18 28 63 55 24 11 11 8 5 8 1 1 3 4 13 6 33 40 40 56 64 59 44 41 40 35 27 23 30 36 36 33 24 15
47 59 38 97 190 191 178 171 162 143 50 17 20 16 14 13 10 24 36 39 33 74 89 37 21 10 5 9 4 9 4 9 11 10 6 10 35 53 54 53 50 49 52 55 48 36 28 28 35 35 31 23 15 11
46 48 49 171 193 183 179 166 142 86 22 17 12 12 16 18 6 21 29 34 68 93 65 14 11 7 4 10 9 16 15 14 8 8 16 23 50 58 54 46 40 45 51 54 50 40 36 34 34 27 19 17 14 10
37 34 127 192 194 184 171 146 86 27 12 10 5 14 24 28 34 37 44 51 95 79 8 13 10 10 14 4 6 9 11 7 10 21 24 34 56 59 52 46 44 46 48 49 52 57 48 43 37 28 26 22 15 8
42 51 174 189 180 150 118 79 24 14 9 10 9 27 16 25 54 42 35 92 78 43 24 11 24 8 12 13 8 10 36 16 16 22 27 47 60 56 49 44 43 43 48 54 60 58 49 43 35 32 27 19 13 8
31 148 182 177 163 108 32 28 6 12 9 15 33 28 20 30 29 47 59 102 41 29 27 19 8 8 8 18 20 15 31 33 29 34 42 58 58 53 48 45 46 52 56 59 59 54 47 39 35 29 22 13 7 11
114 192 186 175 152 53 16 16 8 14 12 16 23 23 24 22 41 42 77 62 46 21 8 6 9 9 10 11 13 12 24 34 39 49 54 59 59 55 50 47 54 58 61 61 57 52 50 45 37 28 17 11 11 13
189 179 165 139 70 27 17 19 13 13 20 17 35 14 22 32 27 27 43 39 21 9 9 14 12 9 13 13 17 18 35 32 41 37 64 70 65 59 56 53 51 52 54 55 54 52 45 36 27 20 14 13 15 16
137 140 104 65 19 15 18 14 27 23 12 23 15 16 19 12 14 24 31 17 12 26 11 4 9 14 15 18 23 31 32 34 34 21 43 60 71 69 66 59 55 52 49 47 48 45 40 32 23 17 15 17 17 16
127 103 37 17 17 13 14 14 12 8 9 8 12 10 6 8 14 38 17 16 13 32 33 17 10 17 21 21 31 36 35 34 29 22 36 52 59 60 59 54 48 49 50 49 46 40 33 26 21 20 20 19 18 18
105 31 13 12 15 9 14 8 11 15 13 6 7 9 3 10 31 4 6 10 16 31 48 36 19 23 28 29 32 38 34 33 33 31 38 46 53 57 56 50 44 45 44 46 45 39 32 28 26 25 23 22 22 21
20 11 15 12 11 13 10 6 5 8 7 6 8 6 7 13 5 4 6 8 32 42 48 45 31 29 31 33 33 38 36 34 31 39 45 45 45 49 53 53 49 48 46 44 42 37 33 31 30 28 26 25 23 22
15 9 6 8 8 11 11 12 11 10 10 7 5 14 10 6 7 10 7 20 29 42 46 47 43 32 31 30 36 40 40 35 39 41 45 45 43 43 48 50 48 46 43 40 36 35 34 33 31 31 31 30 27 26
10 4 9 11 17 24 14 17 17 12 9 10 9 9 8 9 12 3 6 20 27 36 42 43 44 38 35 34 38 40 40 40 44 43 42 44 42 40 36 30 28 30 28 28 31 33 32 31 32 33 32 30 28 26
9 4 12 8 16 9 13 7 8 6 7 15 20 9 17 7 6 9 11 21 28 32 35 38 41 37 35 38 42 42 41 43 44 44 42 43 41 39 36 32 30 28 28 29 30 32 33 32 31 29 29 28 26 29
11 10 12 11 15 23 16 8 6 5 11 13 6 5 6 7 7 9 13 18 25 30 35 37 37 37 37 40 43 44 43 43 43 45 46 46 43 37 33 30 29 30 30 31 31 32 32 29 26 25 25 25 28 31
13 14 15 13 11 9 11 7 11 24 22 22 21 20 16 13 11 11 12 17 20 25 28 30 31 34 36 39 41 44 45 44 41 39 37 34 33 29 28 28 27 26 26 26 26 25 26 26 27 29 32 33 34 35
8 10 18 16 10 12 36 40 37 33 18 20 22 22 22 16 16 15 11 13 16 19 22 23 24 28 31 32 33 35 36 37 35 33 33 31 28 27 26 24 24 23 19 15 15 15 16 20 22 24 26 27 27 29
11 11 12 10 7 20 14 7 10 12 11 11 13 13 11 8 8 7 10 13 15 16 18 20 22 25 27 30 31 31 30 29 28 27 27 25 23 22 20 19 17 17 17 17 16 15 15 16 17 19 21 24 26 28
15 27 29 21 11 9 10 12 9 10 13 8 9 8 8 7 7 8 13 13 14 17 17 18 19 21 24 26 26 24 22 23 23 23 21 20 21 20 20 20 19 18 17 16 15 16 17 18 19 20 22 23 25 26
Wind_Direction_500mb
228 230 229 221 221 215 214 212 216 215 197 186 185 186 193 197 188 193 199 194 191 140 158 175 177 162 155 165 159 266 305 328 22 64 12 92 306 101 269 289 338 329 357 44 170 68 2 0 314 68 56 13 68 78
220 228 223 216 223 215 213 214 207 213 193 185 185 186 195 194 185 194 197 192 192 162 152 171 179 177 174 173 164 114 139 161 143 99 116 135 165 215 3 352 204 23 244 325 222 101 315 349 36 69 99 100 89 92
224 222 227 220 215 213 222 206 204 205 190 186 184 188 194 193 187 197 198 188 179 138 135 156 174 175 165 175 171 158 161 161 138 140 149 110 117 161 319 275 293 207 175 259 288 181 217 50 74 81 113 122 121 115
226 229 219 222 220 212 214 202 208 202 195 184 188 182 192 187 190 190 196 188 179 141 122 175 191 169 159 140 140 129 133 139 144 139 139 135 182 196 204 307 251 33 148 189 269 256 225 203 163 131 128 125 124 127
236 224 219 218 214 215 207 204 202 200 189 185 183 180 187 188 182 183 190 193 190 186 144 139 176 185 163 163 167 151 149 153 139 125 105 152 130 162 78 251 249 189 179 181 201 177 138 158 164 155 151 145 137 143
239 229 220 214 216 214 200 215 200 198 186 181 180 178 186 183 173 171 184 207 199 188 151 125 167 174 168 163 165 167 171 177 124 104 116 134 231 213 201 248 249 199 197 184 149 158 145 156 169 163 160 160 157 153
240 236 219 211 209 204 203 202 198 192 180 180 174 179 184 170 171 170 186 181 191 182 186 102 78 185 185 180 183 176 180 190 146 110 97 141 186 237 229 237 237 198 191 190 163 143 124 148 166 164 168 169 166 177
235 238 217 205 204 205 198 198 196 182 179 176 171 177 171 164 176 197 226 176 176 174 171 117 113 180 185 182 193 185 190 189 59 121 110 103 208 230 254 241 209 188 190 188 182 173 163 163 159 157 150 140 132 127
233 239 222 198 201 200 203 193 182 177 174 167 165 169 151 166 178 198 213 163 169 176 166 141 150 181 168 156 151 168 186 137 254 111 87 264 175 230 225 222 203 196 187 193 186 186 178 179 174 174 173 169 168 150
242 243 225 201 201 193 193 174 172 167 159 160 158 138 151 172 168 154 136 164 170 224 188 107 131 126 162 161 133 122 89 111 203 65 318 213 260 252 235 203 190 189 178 185 185 191 187 187 190 193 198 195 188 181
242 240 222 196 185 189 171 167 165 160 157 155 153 135 142 150 143 164 155 170 191 219 188 144 150 137 175 151 149 182 148 89 194 148 253 246 270 240 202 195 186 181 190 189 201 210 209 212 210 204 199 192 187 184
237 236 234 191 179 170 166 166 168 159 160 160 147 131 135 150 152 138 182 146 209 204 159 145 144 129 149 160 122 148 133 166 216 96 192 256 248 204 182 182 180 176 174 175 177 184 181 179 183 188 189 186 181 175
230 239 220 187 171 167 166 171 161 156 144 134 120 146 147 171 157 178 185 216 192 167 164 154 131 136 130 149 89 132 142 185 130 178 234 235 243 190 180 181 177 175 174 180 177 170 167 170 175 180 180 173 169 170
221 239 203 157 165 165 166 159 157 149 139 136 131 133 195 183 221 176 166 158 165 159 151 141 117 131 130 95 126 120 42 225 119 251 234 242 207 182 178 181 189 191 196 185 179 171 164 165 162 157 160 163 166 177
227 212 179 171 164 165 164 163 156 153 143 132 150 191 185 158 132 160 154 138 141 156 148 123 94 127 97 107 57 119 102 236 220 230 230 210 178 175 171 172 182 194 190 182 178 172 172 167 164 158 158 163 171 169
232 227 218 169 165 164 165 156 156 157 133 151 141 109 128 109 107 154 156 140 152 152 148 131 118 103 152 130 144 213 152 219 235 216 202 176 174 174 172 170 169 171 176 180 186 187 178 168 162 162 167 167 165 169
219 216 168 165 165 162 153 152 154 158 137 125 119 166 154 158 169 166 166 161 157 156 152 133 121 179 116 93 237 200 207 221 212 187 178 174 173 169 169 172 174 176 179 184 184 178 175 174 172 175 173 170 177 195
223 175 165 158 151 145 144 149 134 157 90 110 127 149 146 142 156 156 161 162 162 175 158 171 131 148 180 180 232 223 221 199 178 172 173 167 166 169 172 175 176 178 176 172 171 174 177 177 178 174 175 185 200 236
180 161 153 147 144 139 131 168 86 97 86 104 120 123 115 134 152 166 165 167 163 160 147 146 110 181 213 217 226 209 193 182 177 168 167 167 169 169 170 171 172 169 169 169 171 174 175 176 175 179 186 199 245 288
157 153 151 150 149 133 98 105 103 95 131 139 126 111 107 117 139 161 165 160 162 158 157 166 212 220 214 237 216 205 193 182 175 162 166 170 171 170 171 170 169 167 166 168 171 175 176 176 179 185 194 221 263 283
151 150 148 148 137 81 100 126 102 100 116 103 120 76 90 117 119 144 163 171 185 212 219 228 243 251 221 210 183 183 173 177 179 182 177 174 175 173 173 172 173 174 175 174 175 174 176 181 188 195 217 252 275 279
145 143 140 136 97 86 81 73 111 115 99 123 104 98 110 110 120 149 163 194 236 211 189 223 229 208 203 188 168 159 161 167 175 187 190 186 179 180 180 181 181 182 183 184 183 183 184 190 198 217 248 269 273 264
139 136 114 87 88 71 117 90 90 83 114 147 108 89 80 119 141 140 181 212 232 206 211 230 225 200 194 181 169 164 163 170 177 177 183 191 194 191 187 186 187 188 186 186 188 194 199 206 220 240 255 260 256 250
142 126 77 71 77 94 125 77 95 106 106 75 96 105 106 119 153 166 210 219 205 185 198 211 212 200 196 191 183 181 176 174 175 174 177 185 190 192 192 193 193 194 198 198 199 204 213 227 241 248 251 249 246 241
103 40 90 77 117 110 101 106 91 78 101 124 111 125 161 142 105 174 221 228 185 184 192 195 198 201 204 202 194 190 189 185 186 177 172 175 182 188 191 194 198 199 200 205 211 220 232 242 249 250 250 247 243 235
77 20 61 137 148 117 170 133 152 132 110 96 86 131 148 129 156 216 199 172 180 187 189 194 196 197 205 204 198 193 191 187 178 180 175 174 181 191 190 193 197 203 211 219 229 241 248 251 249 249 246 242 236 228
101 64 67 70 113 119 93 74 115 101 117 139 161 167 163 162 217 155 178 182 184 185 189 191 195 199 201 201 196 195 193 188 184 179 179 176 176 182 190 197 203 212 225 238 248 252 253 251 250 248 244 238 228 221
87 95 122 131 85 76 113 89 95 114 149 152 151 163 166 170 165 167 181 176 179 185 190 192 195 195 195 194 190 189 189 187 184 183 184 185 186 187 192 196 205 221 236 246 249 247 245 247 247 244 239 231 223 213
58 87 103 46 69 52 41 45 83 102 125 156 105 115 112 99 127 156 167 180 182 181 185 189 193 190 191 190 188 186 185 186 186 188 191 195 197 200 207 220 235 246 252 253 251 245 240 236 233 228 220 214 209 205
28 27 90 52 54 46 358 58 108 121 121 111 107 111 100 102 93 132 154 170 181 185 184 187 188 187 185 185 186 185 186 189 193 197 200 203 208 218 228 238 245 249 249 245 243 241 239 232 220 212 207 205 201 199
55 70 77 64 79 79 110 105 99 96 90 70 82 103 110 119 102 89 114 144 157 164 170 176 184 187 186 185 185 187 191 195 199 204 209 215 221 230 237 241 243 242 235 221 209 205 207 209 207 207 203 199 197 196
42 66 122 102 116 149 109 82 75 70 63 66 64 77 89 95 84 99 106 125 142 154 164 171 176 179 182 187 190 194 199 201 205 210 216 221 226 229 227 220 207 190 184 187 188 186 184 184 190 188 186 185 188 189
73 75 88 107 117 170 155 112 82 93 62 76 72 75 80 92 122 125 120 129 137 138 153 163 170 173 174 176 179 184 194 201 205 207 205 201 192 185 180 175 170 168 168 165 170 173 173 175 174 175 178 182 188 193
Wind_Speed_850mb
70 58 68 64 65 69 72 73 70 89 96 96 94 88 78 74 65 59 50 40 23 10 27 21 14 9 11 8 4 2 3 2 3 6 2 2 2 2 3 3 3 4 5 4 2 5 7 22 10 7 2 6 9 21
76 75 66 65 63 74 78 81 72 80 96 98 90 84 82 75 65 59 52 46 30 11 17 22 18 15 11 9 8 5 3 2 3 7 2 4 2 2 1 6 3 1 2 3 3 4 6 14 11 9 8 10 12 20
72 82 71 69 69 85 79 80 78 87 107 102 95 93 81 78 63 61 54 52 35 16 16 18 14 13 11 9 10 6 5 5 5 5 9 3 1 4 2 2 6 4 5 3 2 5 5 0 5 8 15 21 23 21
46 65 76 66 62 77 82 78 82 88 104 103 104 94 84 71 66 62 47 51 34 16 13 9 16 14 9 10 9 12 14 9 9 6 4 3 2 10 3 3 5 1 9 4 6 7 5 10 12 15 21 22 19 22
46 62 84 78 65 101 87 90 92 99 112 107 98 90 81 72 64 57 38 48 38 11 14 13 20 14 14 12 10 10 10 5 3 1 1 2 5 6 2 2 7 19 10 7 4 11 4 14 25 22 22 20 19 18
50 55 73 75 52 100 85 93 92 110 114 107 102 90 81 76 65 54 16 41 43 16 7 6 11 14 12 13 12 10 8 3 2 2 3 2 3 3 3 5 11 28 21 12 6 17 7 21 28 22 20 16 14 14
44 39 62 67 68 93 90 105 112 111 117 111 99 87 79 70 66 45 12 20 53 25 6 12 3 10 16 12 11 8 7 3 2 3 3 4 2 3 1 6 7 26 23 19 15 17 13 20 15 19 14 12 10 9
40 37 57 59 76 95 91 107 117 124 119 107 97 85 68 63 62 44 4 20 59 28 7 8 3 6 21 10 8 9 6 6 4 4 3 2 2 4 9 31 12 20 32 27 26 18 17 18 21 20 16 12 8 5
42 36 55 58 60 106 119 126 139 133 119 107 95 78 65 53 35 37 9 47 48 14 14 9 10 5 21 8 7 9 8 2 1 3 3 2 3 10 19 23 34 36 34 32 35 26 20 23 22 19 16 11 11 8
43 39 47 60 63 113 127 146 145 133 129 115 91 54 22 40 34 35 22 19 14 11 9 9 17 7 15 9 3 5 2 2 4 0 4 4 9 48 28 20 24 38 31 30 44 40 35 31 28 22 18 16 13 7
47 40 52 42 64 132 152 160 153 148 129 113 34 19 59 59 49 14 13 12 13 4 15 17 14 14 18 6 7 8 4 1 3 2 3 3 8 14 27 41 33 38 38 33 34 30 34 30 31 28 26 22 16 10
52 40 46 33 76 155 172 170 164 153 104 79 52 86 78 24 10 10 6 2 8 12 19 23 17 16 18 13 9 5 5 2 6 1 2 6 9 20 27 58 42 45 42 37 33 29 30 29 28 31 31 29 24 22
58 44 48 33 104 185 179 174 151 126 116 97 60 24 19 8 6 20 18 8 6 26 30 27 14 15 14 9 14 5 6 5 5 2 8 10 6 29 35 61 53 51 43 36 36 37 33 28 25 27 34 34 29 25
55 47 50 16 176 191 188 164 147 141 127 24 18 15 17 13 13 9 11 12 18 28 63 55 24 11 11 8 5 8 1 1 3 4 13 6 33 40 40 56 64 59 44 41 40 35 27 23 30 36 36 33 24 15
47 59 38 97 190 191 178 171 162 143 50 17 20 16 14 13 10 24 36 39 33 74 89 37 21 10 5 9 4 9 4 9 11 10 6 10 35 53 54 53 50 49 52 55 48 36 28 28 35 35 31 23 15 11
46 48 49 171 193 183 179 166 142 86 22 17 12 12 16 18 6 21 29 34 68 93 65 14 11 7 4 10 9 16 15 14 8 8 16 23 50 58 54 46 40 45 51 54 50 40 36 34 34 27 19 17 14 10
37 34 127 192 194 184 171 146 86 27 12 10 5 14 24 28 34 37 44 51 95 79 8 13 10 10 14 4 6 9 11 7 10 21 24 34 56 59 52 46 44 46 48 49 52 57 48 43 37 28 26 22 15 8
42 51 174 189 180 150 118 79 24 14 9 10 9 27 16 25 54 42 35 92 78 43 24 11 24 8 12 13 8 10 36 16 16 22 27 47 60 56 49 44 43 43 48 54 60 58 49 43 35 32 27 19 13 8
31 148 182 177 163 108 32 28 6 12 9 15 33 28 20 30 29 47 59 102 41 29 27 19 8 8 8 18 20 15 31 33 29 34 42 58 58 53 48 45 46 52 56 59 59 54 47 39 35 29 22 13 7 11
114 192 186 175 152 53 16 16 8 14 12 16 23 23 24 22 41 42 77 62 46 21 8 6 9 9 10 11 13 12 24 34 39 49 54 59 59 55 50 47 54 58 61 61 57 52 50 45 37 28 17 11 11 13
189 179 165 139 70 27 17 19 13 13 20 17 35 14 22 32 27 27 43 39 21 9 9 14 12 9 13 13 17 18 35 32 41 37 64 70 65 59 56 53 51 52 54 55 54 52 45 36 27 20 14 13 15 16
137 140 104 65 19 15 18 14 27 23 12 23 15 16 19 12 14 24 31 17 12 26 11 4 9 14 15 18 23 31 32 34 34 21 43 60 71 69 66 59 55 52 49 47 48 45 40 32 23 17 15 17 17 16
127 103 37 17 17 13 14 14 12 8 9 8 12 10 6 8 14 38 17 16 13 32 33 17 10 17 21 21 31 36 35 34 29 22 36 52 59 60 59 54 48 49 50 49 46 40 33 26 21 20 20 19 18 18
105 31 13 12 15 9 14 8 11 15 13 6 7 9 3 10 31 4 6 10 16 31 48 36 19 23 28 29 32 38 34 33 33 31 38 46 53 57 56 50 44 45 44 46 45 39 32 28 26 25 23 22 22 21
20 11 15 12 11 13 10 6 5 8 7 6 8 6 7 13 5 4 6 8 32 42 48 45 31 29 31 33 33 38 36 34 31 39 45 45 45 49 53 53 49 48 46 44 42 37 33 31 30 28 26 25 23 22
15 9 6 8 8 11 11 12 11 10 10 7 5 14 10 6 7 10 7 20 29 42 46 47 43 32 31 30 36 40 40 35 39 41 45 45 43 43 48 50 48 46 43 40 36 35 34 33 31 31 31 30 27 26
10 4 9 11 17 24 14 17 17 12 9 10 9 9 8 9 12 3 6 20 27 36 42 43 44 38 35 34 38 40 40 40 44 43 42 44 42 40 36 30 28 30 28 28 31 33 32 31 32 33 32 30 28 26
9 4 12 8 16 9 13 7 8 6 7 15 20 9 17 7 6 9 11 21 28 32 35 38 41 37 35 38 42 42 41 43 44 44 42 43 41 39 36 32 30 28 28 29 30 32 33 32 31 29 29 28 26 29
11 10 12 11 15 23 16 8 6 5 11 13 6 5 6 7 7 9 13 18 25 30 35 37 37 37 37 40 43 44 43 43 43 45 46 46 43 37 33 30 29 30 30 31 31 32 32 29 26 25 25 25 28 31
13 14 15 13 11 9 11 7 11 24 22 22 21 20 16 13 11 11 12 17 20 25 28 30 31 34 36 39 41 44 45 44 41 39 37 34 33 29 28 28 27 26 26 26 26 25 26 26 27 29 32 33 34 35
8 10 18 16 10 12 36 40 37 33 18 20 22 22 22 16 16 15 11 13 16 19 22 23 24 28 31 32 33 35 36 37 35 33 33 31 28 27 26 24 24 23 19 15 15 15 16 20 22 24 26 27 27 29
11 11 12 10 7 20 14 7 10 12 11 11 13 13 11 8 8 7 10 13 15 16 18 20 22 25 27 30 31 31 30 29 28 27 27 25 23 22 20 19 17 17 17 17 16 15 15 16 17 19 21 24 26 28
15 27 29 21 11 9 10 12 9 10 13 8 9 8 8 7 7 8 13 13 14 17 17 18 19 21 24 26 26 24 22 23 23 23 21 20 21 20 20 20 19 18 17 16 15 16 17 18 19 20 22 23 25 26
Wind_Direction_850mb
228 230 229 221 221 215 214 212 216 215 197 186 185 186 193 197 188 193 199 194 191 140 158 175 177 162 155 165 159 266 305 328 22 64 12 92 306 101 269 289 338 329 357 44 170 68 2 0 314 68 56 13 68 78
220 228 223 216 223 215 213 214 207 213 193 185 185 186 195 194 185 194 197 192 192 162 152 171 179 177 174 173 164 114 139 161 143 99 116 135 165 215 3 352 204 23 244 325 222 101 315 349 36 69 99 100 89 92
224 222 227 220 215 213 222 206 204 205 190 186 184 188 194 193 187 197 198 188 179 138 135 156 174 175 165 175 171 158 161 161 138 140 149 110 117 161 319 275 293 207 175 259 288 181 217 50 74 81 113 122 121 115
226 229 219 222 220 212 214 202 208 202 195 184 188 182 192 187 190 190 196 188 179 141 122 175 191 169 159 140 140 129 133 139 144 139 139 135 182 196 204 307 251 33 148 189 269 256 225 203 163 131 128 125 124 127
236 224 219 218 214 215 207 204 202 200 189 185 183 180 187 188 182 183 190 193 190 186 144 139 176 185 163 163 167 151 149 153 139 125 105 152 130 162 78 251 249 189 179 181 201 177 138 158 164 155 151 145 137 143
239 229 220 214 216 214 200 215 200 198 186 181 180 178 186 183 173 171 184 207 199 188 151 125 167 174 168 163 165 167 171 177 124 104 116 134 231 213 201 248 249 199 197 184 149 158 145 156 169 163 160 160 157 153
240 236 219 211 209 204 203 202 198 192 180 180 174 179 184 170 171 170 186 181 191 182 186 102 78 185 185 180 183 176 180 190 146 110 97 141 186 237 229 237 237 198 191 190 163 143 124 148 166 164 168 169 166 177
235 238 217 205 204 205 198 198 196 182 179 176 171 177 171 164 176 197 226 176 176 174 171 117 113 180 185 182 193 185 190 189 59 121 110 103 208 230 254 241 209 188 190 188 182 173 163 163 159 157 150 140 132 127
233 239 222 198 201 200 203 193 182 177 174 167 165 169 151 166 178 198 213 163 169 176 166 141 150 181 168 156 151 168 186 137 254 111 87 264 175 230 225 222 203 196 187 193 186 186 178 179 174 174 173 169 168 150
242 243 225 201 201 193 193 174 172 167 159 160 158 138 151 172 168 154 136 164 170 224 188 107 131 126 162 161 133 122 89 111 203 65 318 213 260 252 235 203 190 189 178 185 185 191 187 187 190 193 198 195 188 181
242 240 222 196 185 189 171 167 165 160 157 155 153 135 142 150 143 164 155 170 191 219 188 144 150 137 175 151 149 182 148 89 194 148 253 246 270 240 202 195 186 181 190 189 201 210 209 212 210 204 199 192 187 184
237 236 234 191 179 170 166 166 168 159 160 160 147 131 135 150 152 138 182 146 209 204 159 145 144 129 149 160 122 148 133 166 216 96 192 256 248 204 182 182 180 176 174 175 177 184 181 179 183 188 189 186 181 175
230 239 220 187 171 167 166 171 161 156 144 134 120 146 147 171 157 178 185 216 192 167 164 154 131 136 130 149 89 132 142 185 130 178 234 235 243 190 180 181 177 175 174 180 177 170 167 170 175 180 180 173 169 170
221 239 203 157 165 165 166 159 157 149 139 136 131 133 195 183 221 176 166 158 165 159 151 141 117 131 130 95 126 120 42 225 119 251 234 242 207 182 178 181 189 191 196 185 179 171 164 165 162 157 160 163 166 177
227 212 179 171 164 165 164 163 156 153 143 132 150 191 185 158 132 160 154 138 141 156 148 123 94 127 97 107 57 119 102 236 220 230 230 210 178 175 171 172 182 194 190 182 178 172 172 167 164 158 158 163 171 169
232 227 218 169 165 164 165 156 156 157 133 151 141 109 128 109 107 154 156 140 152 152 148 131 118 103 152 130 144 213 152 219 235 216 202 176 174 174 172 170 169 171 176 180 186 187 178 168 162 162 167 167 165 169
219 216 168 165 165 162 153 152 154 158 137 125 119 166 154 158 169 166 166 161 157 156 152 133 121 179 116 93 237 200 207 221 212 187 178 174 173 169 169 172 174 176 179 184 184 178 175 174 172 175 173 170 177 195
223 175 165 158 151 145 144 149 134 157 90 110 127 149 146 142 156 156 161 162 162 175 158 171 131 148 180 180 232 223 221 199 178 172 173 167 166 169 172 175 176 178 176 172 171 174 177 177 178 174 175 185 200 236
180 161 153 147 144 139 131 168 86 97 86 104 120 123 115 134 152 166 165 167 163 160 147 146 110 181 213 217 226 209 193 182 177 168 167 167 169 169 170 171 172 169 169 169 171 174 175 176 175 179 186 199 245 288
157 153 151 150 149 133 98 105 103 95 131 139 126 111 107 117 139 161 165 160 162 158 157 166 212 220 214 237 216 205 193 182 175 162 166 170 171 170 171 170 169 167 166 168 171 175 176 176 179 185 194 221 263 283
151 150 148 148 137 81 100 126 102 100 116 103 120 76 90 117 119 144 163 171 185 212 219 228 243 251 221 210 183 183 173 177 179 182 177 174 175 173 173 172 173 174 175 174 175 174 176 181 188 195 217 252 275 279
145 143 140 136 97 86 81 73 111 115 99 123 104 98 110 110 120 149 163 194 236 211 189 223 229 208 203 188 168 159 161 167 175 187 190 186 179 180 180 181 181 182 183 184 183 183 184 190 198 217 248 269 273 264
139 136 114 87 88 71 117 90 90 83 114 147 108 89 80 119 141 140 181 212 232 206 211 230 225 200 194 181 169 164 163 170 177 177 183 191 194 191 187 186 187 188 186 186 188 194 199 206 220 240 255 260 256 250
142 126 77 71 77 94 125 77 95 106 106 75 96 105 106 119 153 166 210 219 205 185 198 211 212 200 196 191 183 181 176 174 175 174 177 185 190 192 192 193 193 194 198 198 199 204 213 227 241 248 251 249 246 241
103 40 90 77 117 110 101 106 91 78 101 124 111 125 161 142 105 174 221 228 185 184 192 195 198 201 204 202 194 190 189 185 186 177 172 175 182 188 191 194 198 199 200 205 211 220 232 242 249 250 250 247 243 235
77 20 61 137 148 117 170 133 152 132 110 96 86 131 148 129 156 216 199 172 180 187 189 194 196 197 205 204 198 193 191 187 178 180 175 174 181 191 190 193 197 203 211 219 229 241 248 251 249 249 246 242 236 228
101 64 67 70 113 119 93 74 115 101 117 139 161 167 163 162 217 155 178 182 184 185 189 191 195 199 201 201 196 195 193 188 184 179 179 176 176 182 190 197 203 212 225 238 248 252 253 251 250 248 244 238 228 221
87 95 122 131 85 76 113 89 95 114 149 152 151 163 166 170 165 167 181 176 179 185 190 192 195 195 195 194 190 189 189 187 184 183 184 185 186 187 192 196 205 221 236 246 249 247 245 247 247 244 239 231 223 213
58 87 103 46 69 52 41 45 83 102 125 156 105 115 112 99 127 156 167 180 182 181 185 189 193 190 191 190 188 186 185 186 186 188 191 195 197 200 207 220 235 246 252 253 251 245 240 236 233 228 220 214 209 205
28 27 90 52 54 46 358 58 108 121 121 111 107 111 100 102 93 132 154 170 181 185 184 187 188 187 185 185 186 185 186 189 193 197 200 203 208 218 228 238 245 249 249 245 243 241 239 232 220 212 207 205 201 199
55 70 77 64 79 79 110 105 99 96 90 70 82 103 110 119 102 89 114 144 157 164 170 176 184 187 186 185 185 187 191 195 199 204 209 215 221 230 237 241 243 242 235 221 209 205 207 209 207 207 203 199 197 196
42 66 122 102 116 149 109 82 75 70 63 66 64 77 89 95 84 99 106 125 142 154 164 171 176 179 182 187 190 194 199 201 205 210 216 221 226 229 227 220 207 190 184 187 188 186 184 184 190 188 186 185 188 189
73 75 88 107 117 170 155 112 82 93 62 76 72 75 80 92 122 125 120 129 137 138 153 163 170 173 174 176 179 184 194 201 205 207 205 201 192 185 180 175 170 168 168 165 170 173 173 175 174 175 178 182 188 193